Torna al catalogo

CZ-6A DEB

AttivoPO
NORAD 55190·DEBRIS·🇨🇳 China

Lanciato Nov 11, 2022 da Taiyuan Satellite Launch Center

Loading…

Prossimi Passaggi (prossime 24 ore)

TLE

AggiornatoSource: Space-Track

Epoca: Sep 14, 2026, 16:39 UTC

1 55190U 22151VF  26257.69414711  .00012198  00000-0  14734-2 0  9998
2 55190  98.6344 339.9320 0056619 333.2066  26.6223 14.82768349198871

Traccia CZ-6A DEB in tempo reale con AllMySat

Download on the App Store